CST,Max TemperatureF,Mean TemperatureF,Min TemperatureF,Max Dew PointF,MeanDew PointF,Min DewpointF,Max Humidity, Mean Humidity, Min Humidity, Max Sea Level PressureIn, Mean Sea Level PressureIn, Min Sea Level PressureIn, Max VisibilityMiles, Mean VisibilityMiles, Min VisibilityMiles, Max Wind SpeedMPH, Mean Wind SpeedMPH, Max Gust SpeedMPH,PrecipitationIn, CloudCover, Events, WindDirDegrees
2012-11-1,63,48,34,40,32,23,75,54,38,30.01,29.95,29.87,10,10,5,14,4,,0.00,3,,267
2012-11-2,54,44,35,35,32,30,81,62,41,30.11,30.04,29.95,10,10,10,10,6,,0.00,0,,49
2012-11-3,49,42,35,39,36,32,91,78,62,30.23,30.12,30.03,10,10,7,15,8,22,0.10,5,Rain-Thunderstorm,55
2012-11-4,47,38,28,37,33,27,97,81,60,30.28,30.22,30.17,10,9,4,5,1,,0.00,3,,83
2012-11-5,42,40,39,40,38,37,93,91,86,30.16,30.12,30.10,7,5,2,10,6,16,0.26,8,Rain,88
2012-11-6,46,43,40,43,40,38,95,91,82,30.10,29.99,29.91,10,5,1,14,3,21,0.06,8,Rain,240
2012-11-7,46,44,42,41,38,36,91,80,69,30.19,30.08,29.94,10,10,5,14,6,18,0.02,8,,328
2012-11-8,55,44,32,40,37,32,100,76,53,30.21,30.13,30.04,10,8,2,14,5,17,0.00,0,,153
2012-11-9,68,55,42,54,46,38,86,70,53,30.05,29.97,29.89,10,10,10,15,7,24,0.00,1,,162
2012-11-10,78,68,57,54,49,39,72,54,28,29.95,29.90,29.84,10,10,10,23,12,34,0.00,0,,176
2012-11-11,70,52,34,56,49,29,92,76,59,30.11,29.89,29.73,10,9,2,29,16,40,0.36,4,Rain,212
2012-11-12,42,35,28,28,22,19,79,61,42,30.43,30.29,30.12,10,10,10,20,11,28,0.13,1,,262
2012-11-13,48,37,26,28,25,21,93,64,34,30.53,30.47,30.43,10,10,10,7,3,,0.00,0,,159
2012-11-14,51,42,33,32,29,26,84,65,42,30.49,30.42,30.36,10,10,7,9,5,,0.00,0,,137
2012-11-15,55,42,30,34,30,26,88,68,33,30.38,30.35,30.32,10,9,5,5,1,,0.00,1,,147
2012-11-16,58,44,31,38,33,28,91,70,41,30.46,30.42,30.38,10,9,3,5,1,,0.00,0,,185
2012-11-17,57,44,31,35,32,26,89,65,31,30.51,30.45,30.39,10,9,5,12,4,,0.00,0,,125
2012-11-18,62,47,32,38,33,23,94,63,22,30.40,30.34,30.28,10,8,2,13,5,,0.00,0,,141
2012-11-19,54,48,42,45,40,33,84,71,62,30.27,30.19,30.11,10,10,5,10,4,,0.00,4,Rain,165
2012-11-20,59,49,39,50,45,39,97,90,72,30.23,30.14,30.08,10,3,0,10,3,,0.00,4,Fog,280
2012-11-21,62,47,32,51,42,32,99,87,53,30.28,30.20,30.11,10,4,0,9,2,,0.00,3,Fog,164
2012-11-22,69,57,45,54,45,37,90,68,46,30.12,29.99,29.86,10,9,3,21,10,33,0.03,2,Rain-Thunderstorm,199
2012-11-23,46,36,27,37,24,18,79,62,45,30.36,30.26,30.13,10,10,10,24,12,32,0.03,1,,290
2012-11-24,35,28,21,23,20,16,83,69,53,30.35,30.22,29.99,10,10,10,8,5,,0.00,0,,227
2012-11-25,49,40,30,31,27,22,74,58,46,30.08,29.96,29.90,10,10,10,10,7,,0.00,0,,287
2012-11-26,43,36,30,29,26,23,83,72,46,30.35,30.22,30.08,10,10,10,16,8,21,0.00,2,,11
2012-11-27,37,28,18,20,16,14,85,61,39,30.47,30.37,30.30,10,10,10,8,4,,0.00,0,,235
2012-11-28,48,38,27,28,24,18,76,61,45,30.44,30.35,30.28,10,10,10,7,4,,0.00,0,,202
2012-11-29,58,45,32,35,31,26,83,60,35,30.28,30.14,30.04,10,10,10,15,6,22,0.00,0,,171
2012-11-30,63,50,37,39,35,31,87,58,41,30.10,30.07,30.05,10,10,7,16,7,20,0.00,0,,217